Time,TemperatureF,DewpointF,PressureIn,WindDirection,WindDirectionDegrees,WindSpeedMPH,WindSpeedGustMPH,Humidity,HourlyPrecipIn,Conditions,Clouds,dailyrainin,SoftwareType,DateUTC
2013-01-16 00:00:00,31.0,24.9,30.11,WSW,258,0.0,0.0,78,0.00,,,0.00,Wunderground v.1.15,2013-01-16 05:00:00,
2013-01-16 00:02:00,31.0,24.9,30.11,WSW,258,0.0,0.0,78,0.00,,,0.00,Wunderground v.1.15,2013-01-16 05:02:00,
2013-01-16 00:04:00,31.0,24.9,30.11,WSW,258,0.0,0.0,78,0.00,,,0.00,Wunderground v.1.15,2013-01-16 05:04:00,
2013-01-16 00:06:00,31.0,24.9,30.11,WSW,258,0.0,0.0,78,0.00,,,0.00,Wunderground v.1.15,2013-01-16 05:06:00,
2013-01-16 00:11:00,31.0,24.6,30.11,WSW,258,0.0,0.0,77,0.00,,,0.00,Wunderground v.1.15,2013-01-16 05:11:00,
2013-01-16 00:16:00,31.1,24.7,30.10,WSW,258,0.0,0.0,77,0.00,,,0.00,Wunderground v.1.15,2013-01-16 05:16:00,
2013-01-16 00:22:00,31.1,24.7,30.10,WSW,258,0.0,0.0,77,0.00,,,0.00,Wunderground v.1.15,2013-01-16 05:22:00,
2013-01-16 00:27:00,31.0,24.9,30.10,NW,315,0.0,1.0,78,0.00,,,0.00,Wunderground v.1.15,2013-01-16 05:27:00,
2013-01-16 00:34:00,31.1,25.0,30.10,NW,315,1.0,3.0,78,0.00,,,0.00,Wunderground v.1.15,2013-01-16 05:34:00,
2013-01-16 00:39:00,31.0,24.9,30.09,NW,315,1.0,3.0,78,0.00,,,0.00,Wunderground v.1.15,2013-01-16 05:39:00,
2013-01-16 00:45:00,31.0,24.6,30.08,NW,315,0.0,1.0,77,0.00,,,0.00,Wunderground v.1.15,2013-01-16 05:45:00,
2013-01-16 00:50:00,31.0,24.6,30.08,NW,315,0.0,0.0,77,0.00,,,0.00,Wunderground v.1.15,2013-01-16 05:50:00,
2013-01-16 00:56:00,31.1,25.0,30.08,NW,315,0.0,0.0,78,0.00,,,0.00,Wunderground v.1.15,2013-01-16 05:56:00,
2013-01-16 01:02:00,31.0,24.9,30.08,NW,315,0.0,0.0,78,0.00,,,0.00,Wunderground v.1.15,2013-01-16 06:02:00,
2013-01-16 01:07:00,31.0,25.2,30.06,NW,315,0.0,0.0,79,0.00,,,0.00,Wunderground v.1.15,2013-01-16 06:07:00,
2013-01-16 01:14:00,31.0,24.9,30.08,NW,316,0.0,0.0,78,0.00,,,0.00,Wunderground v.1.15,2013-01-16 06:14:00,
2013-01-16 01:19:00,31.0,25.2,30.06,NW,316,0.0,0.0,79,0.00,,,0.00,Wunderground v.1.15,2013-01-16 06:19:00,
2013-01-16 01:25:00,31.0,25.2,30.06,NW,316,0.0,0.0,79,0.00,,,0.00,Wunderground v.1.15,2013-01-16 06:25:00,
2013-01-16 01:30:00,31.0,24.9,30.07,NW,316,0.0,0.0,78,0.00,,,0.00,Wunderground v.1.15,2013-01-16 06:30:00,
2013-01-16 01:36:00,31.0,24.6,30.06,NW,316,0.0,0.0,77,0.00,,,0.00,Wunderground v.1.15,2013-01-16 06:36:00,
2013-01-16 01:42:00,31.0,25.2,30.06,NW,316,0.0,0.0,79,0.00,,,0.00,Wunderground v.1.15,2013-01-16 06:42:00,
2013-01-16 01:47:00,31.0,25.2,30.05,NW,316,0.0,0.0,79,0.00,,,0.00,Wunderground v.1.15,2013-01-16 06:47:00,
2013-01-16 01:53:00,30.9,25.5,30.04,NW,316,0.0,3.0,80,0.00,,,0.00,Wunderground v.1.15,2013-01-16 06:53:00,
2013-01-16 01:58:00,30.8,25.4,30.06,NW,323,2.0,4.0,80,0.00,,,0.00,Wunderground v.1.15,2013-01-16 06:58:00,
2013-01-16 02:04:00,30.7,25.0,30.06,NW,324,2.0,2.0,79,0.00,,,0.00,Wunderground v.1.15,2013-01-16 07:04:00,
2013-01-16 02:09:00,30.7,25.0,30.06,NW,322,1.0,2.0,79,0.00,,,0.00,Wunderground v.1.15,2013-01-16 07:09:00,
2013-01-16 02:15:00,30.7,25.0,30.06,NW,323,1.0,3.0,79,0.00,,,0.00,Wunderground v.1.15,2013-01-16 07:15:00,
2013-01-16 02:21:00,30.7,25.3,30.07,NW,323,1.0,3.0,80,0.00,,,0.00,Wunderground v.1.15,2013-01-16 07:21:00,
2013-01-16 02:27:00,30.7,25.0,30.07,NW,323,1.0,3.0,79,0.00,,,0.00,Wunderground v.1.15,2013-01-16 07:27:00,
2013-01-16 02:33:00,30.7,25.0,30.08,NW,323,1.0,2.0,79,0.00,,,0.00,Wunderground v.1.15,2013-01-16 07:33:00,
2013-01-16 02:39:00,30.8,25.1,30.08,NW,323,1.0,2.0,79,0.00,,,0.00,Wunderground v.1.15,2013-01-16 07:39:00,
2013-01-16 02:44:00,30.8,25.4,30.07,NW,323,1.0,2.0,80,0.00,,,0.00,Wunderground v.1.15,2013-01-16 07:44:00,
2013-01-16 02:50:00,30.8,25.7,30.08,NW,323,1.0,3.0,81,0.00,,,0.00,Wunderground v.1.15,2013-01-16 07:50:00,
2013-01-16 02:56:00,30.8,25.7,30.07,NW,323,2.0,6.0,81,0.00,,,0.00,Wunderground v.1.15,2013-01-16 07:56:00,
2013-01-16 03:01:00,30.7,25.9,30.06,NW,325,3.0,3.0,82,0.00,,,0.00,Wunderground v.1.15,2013-01-16 08:01:00,
2013-01-16 03:07:00,30.6,25.8,30.07,NW,323,2.0,5.0,82,0.00,,,0.00,Wunderground v.1.15,2013-01-16 08:07:00,
2013-01-16 03:13:00,30.4,25.9,30.06,NW,321,4.0,4.0,83,0.00,,,0.00,Wunderground v.1.15,2013-01-16 08:13:00,
2013-01-16 03:19:00,30.3,25.8,30.06,NW,321,3.0,5.0,83,0.00,,,0.00,Wunderground v.1.15,2013-01-16 08:19:00,
2013-01-16 03:25:00,30.3,26.0,30.07,NW,321,3.0,3.0,84,0.00,,,0.00,Wunderground v.1.15,2013-01-16 08:25:00,
2013-01-16 03:30:00,30.3,26.0,30.07,NW,321,2.0,2.0,84,0.00,,,0.00,Wunderground v.1.15,2013-01-16 08:30:00,
2013-01-16 03:36:00,30.3,25.8,30.06,NW,321,1.0,2.0,83,0.00,,,0.00,Wunderground v.1.15,2013-01-16 08:36:00,
2013-01-16 03:42:00,30.3,25.8,30.05,North,355,0.0,1.0,83,0.00,,,0.00,Wunderground v.1.15,2013-01-16 08:42:00,
2013-01-16 03:48:00,30.3,26.0,30.06,NW,325,1.0,4.0,84,0.00,,,0.00,Wunderground v.1.15,2013-01-16 08:48:00,
2013-01-16 03:53:00,30.3,25.8,30.03,NW,326,1.0,1.0,83,0.00,,,0.00,Wunderground v.1.15,2013-01-16 08:53:00,
2013-01-16 03:59:00,30.3,26.0,30.03,NW,326,0.0,1.0,84,0.00,,,0.00,Wunderground v.1.15,2013-01-16 08:59:00,
2013-01-16 04:05:00,30.2,25.9,30.03,NW,326,0.0,2.0,84,0.00,,,0.00,Wunderground v.1.15,2013-01-16 09:05:00,
2013-01-16 04:10:00,30.3,26.0,30.02,NW,326,0.0,0.0,84,0.00,,,0.00,Wunderground v.1.15,2013-01-16 09:10:00,
2013-01-16 04:16:00,30.3,26.0,30.02,NW,326,0.0,0.0,84,0.00,,,0.00,Wunderground v.1.15,2013-01-16 09:16:00,
2013-01-16 04:22:00,30.3,26.0,30.03,NW,326,0.0,0.0,84,0.00,,,0.00,Wunderground v.1.15,2013-01-16 09:22:00,
2013-01-16 04:27:00,30.3,26.0,30.01,NW,326,0.0,0.0,84,0.00,,,0.00,Wunderground v.1.15,2013-01-16 09:27:00,
2013-01-16 04:33:00,30.4,26.1,30.01,NW,326,0.0,0.0,84,0.00,,,0.00,Wunderground v.1.15,2013-01-16 09:33:00,
2013-01-16 04:39:00,30.4,26.1,30.01,NW,326,0.0,0.0,84,0.00,,,0.00,Wunderground v.1.15,2013-01-16 09:39:00,
2013-01-16 04:44:00,30.4,26.1,30.00,NW,326,0.0,0.0,84,0.00,,,0.00,Wunderground v.1.15,2013-01-16 09:44:00,
2013-01-16 04:49:00,30.4,26.1,30.01,NW,326,0.0,0.0,84,0.00,,,0.00,Wunderground v.1.15,2013-01-16 09:49:00,
2013-01-16 04:55:00,30.4,26.4,30.01,NW,326,1.0,3.0,85,0.00,,,0.00,Wunderground v.1.15,2013-01-16 09:55:00,
2013-01-16 05:00:00,30.3,26.0,30.02,NW,326,1.0,2.0,84,0.00,,,0.00,Wunderground v.1.15,2013-01-16 10:00:00,
2013-01-16 05:06:00,30.3,26.0,30.02,NW,326,1.0,2.0,84,0.00,,,0.00,Wunderground v.1.15,2013-01-16 10:06:00,
2013-01-16 05:12:00,30.3,26.3,30.02,NW,326,0.0,0.0,85,0.00,,,0.00,Wunderground v.1.15,2013-01-16 10:12:00,
2013-01-16 05:17:00,30.4,26.4,30.02,NW,326,1.0,2.0,85,0.00,,,0.00,Wunderground v.1.15,2013-01-16 10:17:00,
2013-01-16 05:23:00,30.4,26.4,30.01,NW,326,1.0,1.0,85,0.00,,,0.00,Wunderground v.1.15,2013-01-16 10:23:00,
2013-01-16 05:29:00,30.4,26.4,30.01,NW,326,0.0,2.0,85,0.00,,,0.00,Wunderground v.1.15,2013-01-16 10:29:00,
2013-01-16 05:35:00,30.3,26.3,30.00,NW,326,0.0,2.0,85,0.00,,,0.00,Wunderground v.1.15,2013-01-16 10:35:00,
2013-01-16 05:40:00,30.3,26.3,30.00,NW,326,1.0,3.0,85,0.00,,,0.00,Wunderground v.1.15,2013-01-16 10:40:00,
2013-01-16 05:46:00,30.3,26.3,30.00,NW,326,2.0,3.0,85,0.00,,,0.00,Wunderground v.1.15,2013-01-16 10:46:00,
2013-01-16 05:52:00,30.2,26.2,29.99,NW,326,2.0,4.0,85,0.00,,,0.00,Wunderground v.1.15,2013-01-16 10:52:00,
2013-01-16 05:57:00,30.2,26.2,29.99,NW,326,3.0,4.0,85,0.00,,,0.00,Wunderground v.1.15,2013-01-16 10:57:00,
2013-01-16 06:02:00,30.2,26.2,30.00,NW,326,2.0,2.0,85,0.00,,,0.00,Wunderground v.1.15,2013-01-16 11:02:00,
2013-01-16 06:07:00,30.1,26.4,29.99,NW,326,0.0,2.0,86,0.00,,,0.00,Wunderground v.1.15,2013-01-16 11:07:00,
2013-01-16 06:13:00,30.1,26.4,30.00,NW,326,0.0,1.0,86,0.00,,,0.00,Wunderground v.1.15,2013-01-16 11:13:00,
2013-01-16 06:18:00,30.1,26.4,30.00,NW,326,1.0,2.0,86,0.00,,,0.00,Wunderground v.1.15,2013-01-16 11:18:00,
2013-01-16 06:24:00,30.0,26.3,29.99,NW,326,2.0,3.0,86,0.00,,,0.00,Wunderground v.1.15,2013-01-16 11:24:00,
2013-01-16 06:30:00,30.0,26.6,30.00,NW,326,2.0,3.0,87,0.00,,,0.00,Wunderground v.1.15,2013-01-16 11:30:00,
2013-01-16 06:35:00,30.0,26.6,30.01,NW,319,3.0,5.0,87,0.00,,,0.00,Wunderground v.1.15,2013-01-16 11:35:00,
2013-01-16 06:41:00,29.9,26.2,29.99,NW,320,3.0,3.0,86,0.00,,,0.00,Wunderground v.1.15,2013-01-16 11:41:00,
2013-01-16 06:47:00,29.9,26.2,29.99,NW,320,1.0,3.0,86,0.00,,,0.00,Wunderground v.1.15,2013-01-16 11:47:00,
2013-01-16 06:52:00,29.8,26.1,30.00,NW,320,2.0,3.0,86,0.00,,,0.00,Wunderground v.1.15,2013-01-16 11:52:00,
2013-01-16 06:58:00,29.7,26.3,29.99,NW,320,3.0,4.0,87,0.00,,,0.00,Wunderground v.1.15,2013-01-16 11:58:00,
2013-01-16 07:04:00,29.7,26.3,30.00,NW,320,2.0,3.0,87,0.00,,,0.00,Wunderground v.1.15,2013-01-16 12:04:00,
2013-01-16 07:10:00,29.6,26.2,30.00,NW,321,2.0,3.0,87,0.00,,,0.00,Wunderground v.1.15,2013-01-16 12:10:00,
2013-01-16 07:16:00,29.6,26.2,29.99,NW,321,3.0,4.0,87,0.00,,,0.00,Wunderground v.1.15,2013-01-16 12:16:00,
2013-01-16 07:21:00,29.6,26.2,29.99,NW,321,2.0,2.0,87,0.00,,,0.00,Wunderground v.1.15,2013-01-16 12:21:00,
2013-01-16 07:27:00,29.7,26.6,29.99,NW,321,1.0,2.0,88,0.00,,,0.00,Wunderground v.1.15,2013-01-16 12:27:00,
2013-01-16 07:32:00,29.7,26.3,30.00,NW,321,2.0,3.0,87,0.00,,,0.00,Wunderground v.1.15,2013-01-16 12:32:00,
2013-01-16 07:38:00,29.7,26.6,29.99,NW,321,1.0,3.0,88,0.00,,,0.00,Wunderground v.1.15,2013-01-16 12:38:00,
2013-01-16 07:44:00,29.7,26.6,30.00,NW,321,1.0,3.0,88,0.00,,,0.00,Wunderground v.1.15,2013-01-16 12:44:00,
2013-01-16 07:49:00,29.7,26.6,30.00,NW,321,1.0,3.0,88,0.00,,,0.00,Wunderground v.1.15,2013-01-16 12:49:00,
2013-01-16 07:55:00,29.7,26.6,30.00,NW,321,1.0,2.0,88,0.00,,,0.00,Wunderground v.1.15,2013-01-16 12:55:00,
2013-01-16 08:00:00,29.7,26.6,30.00,NW,321,1.0,2.0,88,0.00,,,0.00,Wunderground v.1.15,2013-01-16 13:00:00,
2013-01-16 08:06:00,29.7,26.6,29.99,NW,321,1.0,2.0,88,0.00,,,0.00,Wunderground v.1.15,2013-01-16 13:06:00,
2013-01-16 08:11:00,29.7,26.6,29.99,NW,321,0.0,1.0,88,0.00,,,0.00,Wunderground v.1.15,2013-01-16 13:11:00,
2013-01-16 08:16:00,29.7,26.6,29.99,NW,321,0.0,2.0,88,0.00,,,0.00,Wunderground v.1.15,2013-01-16 13:16:00,
2013-01-16 08:22:00,29.7,26.6,30.00,NW,321,0.0,0.0,88,0.00,,,0.00,Wunderground v.1.15,2013-01-16 13:22:00,
2013-01-16 08:27:00,29.7,26.6,30.00,NW,321,0.0,0.0,88,0.00,,,0.00,Wunderground v.1.15,2013-01-16 13:27:00,
2013-01-16 08:33:00,29.6,26.5,30.00,NW,321,1.0,3.0,88,0.00,,,0.00,Wunderground v.1.15,2013-01-16 13:33:00,
2013-01-16 08:39:00,29.6,26.5,30.00,NW,321,1.0,3.0,88,0.00,,,0.00,Wunderground v.1.15,2013-01-16 13:39:00,
2013-01-16 08:44:00,29.6,26.5,30.00,NW,321,0.0,1.0,88,0.00,,,0.00,Wunderground v.1.15,2013-01-16 13:44:00,
2013-01-16 08:50:00,29.6,26.5,29.99,NW,321,0.0,0.0,88,0.00,,,0.00,Wunderground v.1.15,2013-01-16 13:50:00,
2013-01-16 08:55:00,29.5,26.4,30.00,NW,321,0.0,0.0,88,0.00,,,0.00,Wunderground v.1.15,2013-01-16 13:55:00,
2013-01-16 09:00:00,29.5,26.4,30.00,NW,321,0.0,0.0,88,0.00,,,0.00,Wunderground v.1.15,2013-01-16 14:00:00,
2013-01-16 09:06:00,29.5,26.4,29.99,NW,321,0.0,0.0,88,0.00,,,0.00,Wunderground v.1.15,2013-01-16 14:06:00,
2013-01-16 09:11:00,29.5,26.7,30.00,NW,321,0.0,0.0,89,0.00,,,0.00,Wunderground v.1.15,2013-01-16 14:11:00,
2013-01-16 09:17:00,29.6,26.8,30.00,NW,321,0.0,0.0,89,0.00,,,0.00,Wunderground v.1.15,2013-01-16 14:17:00,
2013-01-16 09:22:00,29.6,26.8,30.00,NW,321,0.0,0.0,89,0.00,,,0.00,Wunderground v.1.15,2013-01-16 14:22:00,
2013-01-16 09:28:00,29.7,26.6,30.00,NW,321,0.0,0.0,88,0.00,,,0.00,Wunderground v.1.15,2013-01-16 14:28:00,
2013-01-16 09:34:00,29.8,26.7,30.02,WNW,290,0.0,0.0,88,0.00,,,0.00,Wunderground v.1.15,2013-01-16 14:34:00,
2013-01-16 09:39:00,30.0,26.6,30.01,WNW,290,0.0,0.0,87,0.00,,,0.00,Wunderground v.1.15,2013-01-16 14:39:00,
2013-01-16 09:44:00,30.0,26.6,30.02,West,261,0.0,1.0,87,0.00,,,0.00,Wunderground v.1.15,2013-01-16 14:44:00,
2013-01-16 09:49:00,30.1,26.7,30.02,West,261,0.0,1.0,87,0.00,,,0.00,Wunderground v.1.15,2013-01-16 14:49:00,
2013-01-16 09:55:00,30.3,26.9,30.01,WSW,240,0.0,1.0,87,0.00,,,0.00,Wunderground v.1.15,2013-01-16 14:55:00,
2013-01-16 10:00:00,30.4,27.0,30.02,WSW,240,0.0,0.0,87,0.00,,,0.00,Wunderground v.1.15,2013-01-16 15:00:00,
2013-01-16 10:06:00,30.5,27.1,30.03,WSW,240,0.0,0.0,87,0.00,,,0.00,Wunderground v.1.15,2013-01-16 15:06:00,
2013-01-16 10:12:00,30.6,26.9,30.02,SW,236,0.0,0.0,86,0.00,,,0.00,Wunderground v.1.15,2013-01-16 15:12:00,
2013-01-16 10:17:00,30.8,27.4,30.02,SW,223,0.0,0.0,87,0.00,,,0.00,Wunderground v.1.15,2013-01-16 15:17:00,
2013-01-16 10:23:00,30.9,27.2,30.03,SW,223,0.0,0.0,86,0.00,,,0.00,Wunderground v.1.15,2013-01-16 15:23:00,
2013-01-16 10:29:00,31.0,27.0,30.03,WSW,245,1.0,3.0,85,0.00,,,0.00,Wunderground v.1.15,2013-01-16 15:29:00,
2013-01-16 10:34:00,31.0,27.0,30.02,SSW,199,1.0,5.0,85,0.00,,,0.00,Wunderground v.1.15,2013-01-16 15:34:00,
2013-01-16 10:40:00,30.9,26.9,30.03,SSW,207,2.0,2.0,85,0.00,,,0.00,Wunderground v.1.15,2013-01-16 15:40:00,
2013-01-16 10:46:00,31.0,27.0,30.02,SW,227,1.0,2.0,85,0.00,,,0.00,Wunderground v.1.15,2013-01-16 15:46:00,
2013-01-16 10:51:00,31.1,27.1,30.02,SW,218,0.0,0.0,85,0.00,,,0.00,Wunderground v.1.15,2013-01-16 15:51:00,
2013-01-16 10:57:00,31.4,27.4,30.02,SW,227,1.0,5.0,85,0.00,,,0.00,Wunderground v.1.15,2013-01-16 15:57:00,
2013-01-16 11:03:00,31.5,27.5,30.01,West,269,1.0,1.0,85,0.00,,,0.00,Wunderground v.1.15,2013-01-16 16:03:00,
2013-01-16 11:09:00,31.7,27.7,30.01,SSW,198,1.0,3.0,85,0.00,,,0.00,Wunderground v.1.15,2013-01-16 16:09:00,
2013-01-16 11:14:00,31.8,27.5,30.01,WSW,243,1.0,3.0,84,0.00,,,0.00,Wunderground v.1.15,2013-01-16 16:14:00,
2013-01-16 11:20:00,32.0,27.4,30.01,WSW,248,1.0,1.0,83,0.00,,,0.00,Wunderground v.1.15,2013-01-16 16:20:00,
2013-01-16 11:26:00,32.2,27.9,30.00,West,270,1.0,1.0,84,0.00,,,0.00,Wunderground v.1.15,2013-01-16 16:26:00,
2013-01-16 11:31:00,32.4,28.1,30.00,WNW,291,0.0,0.0,84,0.00,,,0.00,Wunderground v.1.15,2013-01-16 16:31:00,
2013-01-16 11:37:00,32.8,28.5,30.00,WNW,291,0.0,2.0,84,0.00,,,0.00,Wunderground v.1.15,2013-01-16 16:37:00,
2013-01-16 11:42:00,32.9,28.3,30.00,NW,304,1.0,1.0,83,0.00,,,0.00,Wunderground v.1.15,2013-01-16 16:42:00,
2013-01-16 11:47:00,33.1,28.5,30.00,West,276,0.0,2.0,83,0.00,,,0.00,Wunderground v.1.15,2013-01-16 16:47:00,
2013-01-16 11:53:00,33.2,28.3,30.00,West,276,1.0,1.0,82,0.00,,,0.00,Wunderground v.1.15,2013-01-16 16:53:00,
2013-01-16 11:59:00,33.4,28.5,30.00,SW,229,1.0,2.0,82,0.00,,,0.00,Wunderground v.1.15,2013-01-16 16:59:00,
2013-01-16 12:04:00,33.5,28.3,29.99,WSW,251,1.0,9.0,81,0.00,,,0.00,Wunderground v.1.15,2013-01-16 17:04:00,
2013-01-16 12:09:00,33.7,28.8,29.99,WNW,302,1.0,9.0,82,0.00,,,0.00,Wunderground v.1.15,2013-01-16 17:09:00,
2013-01-16 12:14:00,33.9,28.7,29.99,SSW,201,0.0,2.0,81,0.00,,,0.00,Wunderground v.1.15,2013-01-16 17:14:00,
2013-01-16 12:20:00,34.1,28.6,29.99,West,271,1.0,1.0,80,0.00,,,0.00,Wunderground v.1.15,2013-01-16 17:20:00,
2013-01-16 12:25:00,34.2,28.7,29.98,NW,323,1.0,4.0,80,0.00,,,0.00,Wunderground v.1.15,2013-01-16 17:25:00,
2013-01-16 12:31:00,34.5,29.6,29.98,NW,307,1.0,3.0,82,0.00,,,0.00,Wunderground v.1.15,2013-01-16 17:31:00,
2013-01-16 12:37:00,34.7,28.9,29.98,SW,221,2.0,4.0,79,0.00,,,0.00,Wunderground v.1.15,2013-01-16 17:37:00,
2013-01-16 12:42:00,35.0,28.8,29.98,WNW,296,1.0,2.0,78,0.00,,,0.00,Wunderground v.1.15,2013-01-16 17:42:00,
2013-01-16 12:48:00,35.0,28.8,29.97,WSW,257,2.0,4.0,78,0.00,,,0.00,Wunderground v.1.15,2013-01-16 17:48:00,
2013-01-16 12:53:00,35.0,29.1,29.97,NW,305,2.0,4.0,79,0.00,,,0.00,Wunderground v.1.15,2013-01-16 17:53:00,
2013-01-16 12:59:00,35.2,28.7,29.97,NW,304,1.0,4.0,77,0.00,,,0.00,Wunderground v.1.15,2013-01-16 17:59:00,
2013-01-16 13:05:00,35.1,28.6,29.97,NW,306,1.0,1.0,77,0.00,,,0.00,Wunderground v.1.15,2013-01-16 18:05:00,
2013-01-16 13:11:00,35.2,28.7,29.97,WNW,292,0.0,1.0,77,0.00,,,0.00,Wunderground v.1.15,2013-01-16 18:11:00,
2013-01-16 13:16:00,35.4,28.9,29.97,WNW,282,0.0,1.0,77,0.00,,,0.00,Wunderground v.1.15,2013-01-16 18:16:00,
2013-01-16 13:22:00,35.5,29.0,29.97,NW,316,1.0,3.0,77,0.00,,,0.00,Wunderground v.1.15,2013-01-16 18:22:00,
2013-01-16 13:28:00,35.6,29.1,29.96,WNW,303,1.0,3.0,77,0.00,,,0.00,Wunderground v.1.15,2013-01-16 18:28:00,
2013-01-16 13:33:00,35.6,28.8,29.96,WNW,298,1.0,4.0,76,0.00,,,0.00,Wunderground v.1.15,2013-01-16 18:33:00,
2013-01-16 13:39:00,35.7,28.6,29.96,SW,232,1.0,4.0,75,0.00,,,0.00,Wunderground v.1.15,2013-01-16 18:39:00,
2013-01-16 13:44:00,35.7,28.6,29.96,NW,309,0.0,5.0,75,0.00,,,0.00,Wunderground v.1.15,2013-01-16 18:44:00,
2013-01-16 13:49:00,35.6,27.8,29.97,NW,309,2.0,5.0,73,0.00,,,0.00,Wunderground v.1.15,2013-01-16 18:49:00,
2013-01-16 13:55:00,35.6,28.1,29.97,WNW,291,2.0,3.0,74,0.00,,,0.00,Wunderground v.1.15,2013-01-16 18:55:00,
2013-01-16 14:01:00,35.6,27.8,29.97,WNW,301,1.0,2.0,73,0.00,,,0.00,Wunderground v.1.15,2013-01-16 19:01:00,
2013-01-16 14:06:00,35.6,28.1,29.97,WNW,284,2.0,3.0,74,0.00,,,0.00,Wunderground v.1.15,2013-01-16 19:06:00,
2013-01-16 14:11:00,35.5,27.7,29.97,WNW,298,2.0,3.0,73,0.00,,,0.00,Wunderground v.1.15,2013-01-16 19:11:00,
2013-01-16 14:17:00,35.4,27.9,29.97,WNW,302,2.0,3.0,74,0.00,,,0.00,Wunderground v.1.15,2013-01-16 19:17:00,
2013-01-16 14:23:00,35.4,27.9,29.96,West,267,1.0,3.0,74,0.00,,,0.00,Wunderground v.1.15,2013-01-16 19:23:00,
2013-01-16 14:29:00,35.5,28.4,29.96,West,270,1.0,3.0,75,0.00,,,0.00,Wunderground v.1.15,2013-01-16 19:29:00,
2013-01-16 14:34:00,35.4,27.9,29.96,NW,304,2.0,5.0,74,0.00,,,0.00,Wunderground v.1.15,2013-01-16 19:34:00,
2013-01-16 14:40:00,35.2,28.1,29.96,WNW,284,2.0,2.0,75,0.00,,,0.00,Wunderground v.1.15,2013-01-16 19:40:00,
2013-01-16 14:45:00,35.3,27.5,29.96,WNW,291,1.0,3.0,73,0.00,,,0.00,Wunderground v.1.15,2013-01-16 19:45:00,
2013-01-16 14:51:00,35.3,27.8,29.97,WSW,255,1.0,1.0,74,0.00,,,0.00,Wunderground v.1.15,2013-01-16 19:51:00,
2013-01-16 14:57:00,35.3,27.5,29.97,West,275,0.0,2.0,73,0.00,,,0.00,Wunderground v.1.15,2013-01-16 19:57:00,
2013-01-16 15:02:00,35.4,27.6,29.97,West,260,1.0,2.0,73,0.00,,,0.00,Wunderground v.1.15,2013-01-16 20:02:00,
2013-01-16 15:09:00,35.3,27.2,29.97,West,271,2.0,7.0,72,0.00,,,0.00,Wunderground v.1.15,2013-01-16 20:09:00,
2013-01-16 15:14:00,35.3,27.5,29.97,West,277,2.0,2.0,73,0.00,,,0.00,Wunderground v.1.15,2013-01-16 20:14:00,
2013-01-16 15:19:00,35.3,27.2,29.97,West,267,0.0,2.0,72,0.00,,,0.00,Wunderground v.1.15,2013-01-16 20:19:00,
2013-01-16 15:25:00,35.3,27.5,29.97,SSW,195,1.0,7.0,73,0.00,,,0.00,Wunderground v.1.15,2013-01-16 20:25:00,
2013-01-16 15:30:00,35.3,27.5,29.97,SW,229,2.0,2.0,73,0.00,,,0.00,Wunderground v.1.15,2013-01-16 20:30:00,
2013-01-16 15:36:00,35.3,27.2,29.98,SSW,210,1.0,3.0,72,0.00,,,0.00,Wunderground v.1.15,2013-01-16 20:36:00,
2013-01-16 15:41:00,35.2,27.4,29.98,SW,222,2.0,5.0,73,0.00,,,0.00,Wunderground v.1.15,2013-01-16 20:41:00,
2013-01-16 15:47:00,35.1,27.0,29.97,WSW,241,3.0,5.0,72,0.00,,,0.00,Wunderground v.1.15,2013-01-16 20:47:00,
2013-01-16 15:52:00,35.1,27.3,29.97,SW,233,2.0,2.0,73,0.00,,,0.00,Wunderground v.1.15,2013-01-16 20:52:00,
2013-01-16 15:58:00,35.1,26.6,29.97,SSW,196,3.0,7.0,71,0.00,,,0.00,Wunderground v.1.15,2013-01-16 20:58:00,
2013-01-16 16:03:00,35.1,26.6,29.97,SW,236,3.0,8.0,71,0.00,,,0.00,Wunderground v.1.15,2013-01-16 21:03:00,